This demonstration page uses our WeatherBlox Daily Observations layout. Learn more.

Left ArrowRight Arrow

36.17497, -115.13722

Hourly Observations for July 30, 2020

Temp ( °F °C ) Dew Point ( °F °C ) Humidity (%) Winds ( mph kmh ) Pressure ( in mb ) Visibility ( mi km ) Precip ( " mm )
12:53 am 00:53 Clear 88 31.1 21 -6.1 8 8 NNW 5 7 29.84 1010 10 16 0.00 0.00
1:53 am 01:53 Clear 85 29.4 28 -2.2 13 13 WNW 5 7 29.84 1010 10 16 0.00 0.00
2:53 am 02:53 Clear 82 27.8 27 -2.8 13 13 NW 6 9 29.83 1010 10 16 0.00 0.00
3:53 am 03:53 Clear 82 27.8 28 -2.2 14 14 Calm 29.84 1011 10 16 0.00 0.00
4:53 am 04:53 Clear 82 27.8 29 -1.7 14 14 W 5 7 29.85 1011 10 16 0.00 0.00
5:53 am 05:53 Sunny 81 27.2 25 -3.9 13 13 NW 5 7 29.88 1012 10 16 0.00 0.00
6:53 am 06:53 Sunny 81 27.2 27 -2.8 14 14 NW 5 7 29.91 1013 10 16 0.00 0.00
7:53 am 07:53 Sunny 87 30.6 29 -1.7 12 12 NW 3 6 29.92 1013 10 16 0.00 0.00
8:53 am 08:53 Sunny 96 35.6 24 -4.4 7 7 N 3 6 29.92 1013 10 16 0.00 0.00
9:53 am 09:53 Sunny 100 37.8 20 -6.7 5 5 Calm 29.92 1013 10 16 0.00 0.00
10:53 am 10:53 Sunny 102 38.9 15 -9.4 4 4 E 3 6 29.93 1013 10 16 0.00 0.00
11:53 am 11:53 Sunny 105 40.6 21 -6.1 5 5 SSE 8 13 29.91 1013 10 16 0.00 0.00
12:53 pm 12:53 Sunny 109 42.8 30 -1.1 6 6 SE 9 15 29.89 1012 10 16 0.00 0.00
1:53 pm 13:53 Sunny 110 43.3 32 0 7 7 VRB 7 11 29.88 1012 10 16 0.00 0.00
2:53 pm 14:53 Sunny 110 43.3 33 0.6 7 7 VRB 3 6 29.86 1011 10 16 0.00 0.00
3:53 pm 15:53 Sunny 112 44.4 35 1.7 7 7 W 9 15 29.84 1011 10 16 0.00 0.00
4:53 pm 16:53 Sunny 112 44.4 37 2.8 8 8 WSW 16 26 29.82 1010 10 16 0.00 0.00
5:53 pm 17:53 Sunny 111 43.9 36 2.2 8 8 W 13 20 29.82 1010 10 16 0.00 0.00
6:53 pm 18:53 Sunny 109 42.8 36 2.2 8 8 W 16 26 29.82 1010 10 16 0.00 0.00
7:53 pm 19:53 Clear 107 41.7 33 0.6 8 8 W 9 15 29.83 1010 10 16 0.00 0.00
8:53 pm 20:53 Clear 103 39.4 34 1.1 9 9 W 7 11 29.84 1010 10 16 0.00 0.00
9:53 pm 21:53 Clear 101 38.3 36 2.2 10 10 W 7 11 29.84 1011 10 16 0.00 0.00
10:53 pm 22:53 Clear 98 36.7 34 1.1 11 11 N 5 7 29.85 1011 10 16 0.00 0.00
11:53 pm 23:53 Clear 96 35.6 35 1.7 12 12 WSW 5 7 29.84 1011 10 16 0.00 0.00

Powered by AerisWeather